195  
NZUS01 KABQ 140610  
RWRABQ  
NEW MEXICO REGIONAL WEATHER ROUNDUP  
NATIONAL WEATHER SERVICE ALBUQUERQUE NM  
1200 AM MDT TUE AUG 14 2018  
 
-----NORTHERN NEW MEXICO AND NEARBY AREAS-----  
 
 
CITY SKY/WX TMP DP RH WIND PRES REMARKS
 
ALBUQUERQUE FAIR 74 50 42 NW6 30.08R  
6HR MIN TEMP: 74; 6HR MAX TEMP: 91; 6HR PCP: TRACE;  
 
BELEN FAIR 74 47 38 W3 30.07R  
SOCORRO MOCLDY 74 54 49 SW18 30.03F  
6HR MIN TEMP: 72; 6HR MAX TEMP: 91; 6HR PCP: 0.03;  
 
 
CITY SKY/WX TMP DP RH WIND PRES REMARKS
 
SANTA FE CLEAR 59 51 75 N8 30.13S  
6HR MIN TEMP: 57; 6HR MAX TEMP: 83; 6HR PCP: 0.04;  
 
LOS ALAMOS PTCLDY 65 37 35 CALM 30.21R  
6HR MIN TEMP: 65; 6HR MAX TEMP: 75;  
 
TAOS CLEAR 59 36 42 CALM 30.24R  
6HR MIN TEMP: 56; 6HR MAX TEMP: 77; 6HR PCP: TRACE;  
 
ANGEL FIRE FAIR 43 40 88 CALM 30.33R  
6HR MIN TEMP: 41; 6HR MAX TEMP: 66;  
 
FARMINGTON MOCLDY 74 44 34 E3 30.07S  
6HR MIN TEMP: 73; 6HR MAX TEMP: 88; 6HR PCP: TRACE;  
 
GRANTS PTCLDY 65 38 36 S3 30.20S  
6HR MIN TEMP: 65; 6HR MAX TEMP: 86;  
 
GALLUP MOCLDY 66 43 43 S3 30.16F  
6HR MIN TEMP: 60; 6HR MAX TEMP: 79;  
 
FLAGSTAFF CLOUDY 62 51 67 SW7 30.25F  
6HR MIN TEMP: 57; 6HR MAX TEMP: 67; 6HR PCP: 0.05;  
 
DURANGO PTCLDY 63 42 46 CALM 30.16S  
6HR MIN TEMP: 61; 6HR MAX TEMP: 78;  
 
 
CITY SKY/WX TMP DP RH WIND PRES REMARKS
 
ALAMOSA PTCLDY 59 39 47 NE7 30.24R  
6HR MIN TEMP: 56; 6HR MAX TEMP: 76;  
 
DENVER PTCLDY 66 54 65 SE7 30.09S  
6HR MIN TEMP: 65; 6HR MAX TEMP: 87;  
 
CLAYTON PTCLDY 67 56 67 S13 30.04F  
6HR MIN TEMP: 67; 6HR MAX TEMP: 84;  
 
RATON CLEAR 60 45 57 N6 30.14S  
6HR MIN TEMP: 58; 6HR MAX TEMP: 85;  
 
LAS VEGAS CLEAR 60 44 55 N10 30.17R  
6HR MIN TEMP: 58; 6HR MAX TEMP: 73;  
 
CLINES CORNERS CLEAR 62 43 49 NW7 30.19S  
6HR MIN TEMP: 61; 6HR MAX TEMP: 72; 6HR PCP: TRACE;  
 
SANTA ROSA FAIR 71 52 51 SE9 30.01F  
6HR MIN TEMP: 71; 6HR MAX TEMP: 90;  
 
TUCUMCARI CLEAR 73 59 61 S10 29.96R  
6HR MIN TEMP: 72; 6HR MAX TEMP: 92; 6HR PCP: TRACE;  
 
CLOVIS (AFB) NOT AVBL  
CLOVIS PTCLDY 70 64 81 S15 30.04R  
6HR MIN TEMP: 70; 6HR MAX TEMP: 85; 6HR PCP: TRACE;  
 
AMARILLO CLOUDY 72 64 76 SE12 30.00F  
6HR MIN TEMP: 71; 6HR MAX TEMP: 85;  
 
-----SOUTHERN NEW MEXICO AND NEARBY AREAS-----  
 
 
CITY SKY/WX TMP DP RH WIND PRES REMARKS
 
T OR C MOCLDY 80 50 34 W7 30.03R  
6HR MIN TEMP: 80; 6HR MAX TEMP: 93;  
 
DEMING CLEAR 76 53 44 S6 30.01R  
6HR MIN TEMP: 75; 6HR MAX TEMP: 93;  
 
TUCSON CLEAR 84 60 44 W5 29.96S  
6HR MIN TEMP: 84; 6HR MAX TEMP: 95;  
 
EL PASO PTCLDY 82 49 31 S8 29.98R  
6HR MIN TEMP: 81; 6HR MAX TEMP: 92;  
 
LAS CRUCES CLEAR 79 47 33 SW8 30.03S  
6HR MIN TEMP: 78; 6HR MAX TEMP: 92;  
 
 
CITY SKY/WX TMP DP RH WIND PRES REMARKS
 
ALAMOGORDO CLEAR 80 47 31 SE9 30.02R  
6HR MIN TEMP: 78; 6HR MAX TEMP: 94;  
 
ROSWELL PTCLDY 78 54 43 S14 29.96S  
6HR MIN TEMP: 78; 6HR MAX TEMP: 92;  
 
CARLSBAD CLEAR 77 61 57 SE13 29.95S  
6HR MIN TEMP: 77; 6HR MAX TEMP: 89;  
 
HOBBS CLEAR 72 64 78 S15 30.00S  
 
CLICK HERE TO GO TO PREVIOUS BULLETINS.

The Nexlab NM Page Main Text Page